Time,TemperatureF,DewpointF,PressureIn,WindDirection,WindDirectionDegrees,WindSpeedMPH,WindSpeedGustMPH,Humidity,HourlyPrecipIn,Conditions,Clouds,dailyrainin,SoftwareType,DateUTC
2013-10-12 00:00:00,62.2,58.0,29.94,ENE,74,0.0,3.0,86,0.00,,,0.00,Wunderground v.1.15,2013-10-12 04:00:00,
2013-10-12 00:05:00,62.2,58.0,29.94,ENE,74,0.0,3.0,86,0.00,,,0.00,Wunderground v.1.15,2013-10-12 04:05:00,
2013-10-12 00:10:00,62.2,58.3,29.93,ENE,74,0.0,1.0,87,0.00,,,0.00,Wunderground v.1.15,2013-10-12 04:10:00,
2013-10-12 00:15:00,62.1,57.9,29.94,ENE,74,0.0,1.0,86,0.00,,,0.00,Wunderground v.1.15,2013-10-12 04:15:00,
2013-10-12 00:20:00,61.7,57.5,29.93,ENE,74,0.0,0.0,86,0.00,,,0.00,Wunderground v.1.15,2013-10-12 04:20:00,
2013-10-12 00:25:00,61.3,57.4,29.93,ENE,74,0.0,0.0,87,0.00,,,0.00,Wunderground v.1.15,2013-10-12 04:25:00,
2013-10-12 00:30:00,61.1,57.2,29.93,ENE,74,0.0,0.0,87,0.00,,,0.00,Wunderground v.1.15,2013-10-12 04:30:00,
2013-10-12 00:36:00,60.9,57.3,29.93,ENE,74,0.0,0.0,88,0.00,,,0.00,Wunderground v.1.15,2013-10-12 04:36:00,
2013-10-12 00:42:00,60.7,57.1,29.93,ENE,74,0.0,0.0,88,0.00,,,0.00,Wunderground v.1.15,2013-10-12 04:42:00,
2013-10-12 00:44:00,39.5,36.0,30.15,SSW,194,0.0,0.0,87,0.00,,,0.00,Wunderground v.1.15,2013-10-12 04:44:00,
2013-10-12 00:45:00,39.5,36.0,30.15,SSW,194,0.0,0.0,87,0.00,,,0.00,Wunderground v.1.15,2013-10-12 04:45:00,
2013-10-12 00:46:00,39.5,36.0,30.15,SSW,194,0.0,0.0,87,0.00,,,0.00,Wunderground v.1.15,2013-10-12 04:46:00,
2013-10-12 00:47:00,60.5,56.9,29.93,ENE,74,0.0,0.0,88,0.00,,,0.00,Wunderground v.1.15,2013-10-12 04:47:00,
2013-10-12 00:48:00,39.4,35.9,30.15,SSW,194,0.0,0.0,87,0.00,,,0.00,Wunderground v.1.15,2013-10-12 04:48:00,
2013-10-12 00:49:00,39.3,35.8,30.15,SSW,194,0.0,0.0,87,0.00,,,0.00,Wunderground v.1.15,2013-10-12 04:49:00,
2013-10-12 00:50:00,39.3,35.5,30.15,SSW,194,0.0,0.0,86,0.00,,,0.00,Wunderground v.1.15,2013-10-12 04:50:00,
2013-10-12 00:51:00,39.3,35.5,30.15,SSW,194,0.0,0.0,86,0.00,,,0.00,Wunderground v.1.15,2013-10-12 04:51:00,
2013-10-12 00:52:00,60.4,56.8,29.93,ENE,74,0.0,0.0,88,0.00,,,0.00,Wunderground v.1.15,2013-10-12 04:52:00,
2013-10-12 00:53:00,39.2,35.4,30.15,SSW,194,0.0,0.0,86,0.00,,,0.00,Wunderground v.1.15,2013-10-12 04:53:00,
2013-10-12 00:54:00,39.2,35.4,30.15,SSW,194,0.0,0.0,86,0.00,,,0.00,Wunderground v.1.15,2013-10-12 04:54:00,
2013-10-12 00:55:00,39.1,35.6,30.15,SSW,194,0.0,0.0,87,0.00,,,0.00,Wunderground v.1.15,2013-10-12 04:55:00,
2013-10-12 00:56:00,39.1,35.6,30.15,SSW,194,0.0,0.0,87,0.00,,,0.00,Wunderground v.1.15,2013-10-12 04:56:00,
2013-10-12 00:57:00,60.2,56.6,29.93,ENE,74,0.0,0.0,88,0.00,,,0.00,Wunderground v.1.15,2013-10-12 04:57:00,
2013-10-12 00:58:00,39.1,35.6,30.15,SSW,194,0.0,0.0,87,0.00,,,0.00,Wunderground v.1.15,2013-10-12 04:58:00,
2013-10-12 00:59:00,39.1,35.6,30.15,SSW,194,0.0,0.0,87,0.00,,,0.00,Wunderground v.1.15,2013-10-12 04:59:00,
2013-10-12 01:00:00,39.1,35.6,30.15,SSW,194,0.0,0.0,87,0.00,,,0.00,Wunderground v.1.15,2013-10-12 05:00:00,
2013-10-12 01:01:00,39.1,35.8,30.15,SSW,194,0.0,0.0,88,0.00,,,0.00,Wunderground v.1.15,2013-10-12 05:01:00,
2013-10-12 01:02:00,60.0,56.4,29.93,ENE,74,0.0,0.0,88,0.00,,,0.00,Wunderground v.1.15,2013-10-12 05:02:00,
2013-10-12 01:03:00,39.0,35.5,30.15,SSW,194,0.0,0.0,87,0.00,,,0.00,Wunderground v.1.15,2013-10-12 05:03:00,
2013-10-12 01:04:00,38.9,35.4,30.15,SSW,194,0.0,0.0,87,0.00,,,0.00,Wunderground v.1.15,2013-10-12 05:04:00,
2013-10-12 01:05:00,38.9,35.4,30.15,SSW,194,0.0,0.0,87,0.00,,,0.00,Wunderground v.1.15,2013-10-12 05:05:00,
2013-10-12 01:06:00,38.8,35.3,30.15,SSW,194,0.0,0.0,87,0.00,,,0.00,Wunderground v.1.15,2013-10-12 05:06:00,
2013-10-12 01:07:00,59.9,56.6,29.93,ENE,74,0.0,0.0,89,0.00,,,0.00,Wunderground v.1.15,2013-10-12 05:07:00,
2013-10-12 01:08:00,38.8,35.3,30.15,SSW,194,0.0,0.0,87,0.00,,,0.00,Wunderground v.1.15,2013-10-12 05:08:00,
2013-10-12 01:09:00,38.7,35.2,30.14,SSW,194,0.0,0.0,87,0.00,,,0.00,Wunderground v.1.15,2013-10-12 05:09:00,
2013-10-12 01:10:00,38.7,35.2,30.14,SSW,194,0.0,0.0,87,0.00,,,0.00,Wunderground v.1.15,2013-10-12 05:10:00,
2013-10-12 01:11:00,38.7,35.2,30.14,SSW,194,0.0,0.0,87,0.00,,,0.00,Wunderground v.1.15,2013-10-12 05:11:00,
2013-10-12 01:12:00,59.8,56.2,29.93,ENE,74,0.0,0.0,88,0.00,,,0.00,Wunderground v.1.15,2013-10-12 05:12:00,
2013-10-12 01:13:00,38.7,35.5,30.14,SSW,194,0.0,0.0,88,0.00,,,0.00,Wunderground v.1.15,2013-10-12 05:13:00,
2013-10-12 01:14:00,38.6,35.4,30.14,SSW,194,0.0,0.0,88,0.00,,,0.00,Wunderground v.1.15,2013-10-12 05:14:00,
2013-10-12 01:15:00,38.7,35.5,30.14,SSW,194,0.0,0.0,88,0.00,,,0.00,Wunderground v.1.15,2013-10-12 05:15:00,
2013-10-12 01:16:00,38.6,35.4,30.14,SSW,194,0.0,0.0,88,0.00,,,0.00,Wunderground v.1.15,2013-10-12 05:16:00,
2013-10-12 01:17:00,59.6,56.0,29.93,ENE,74,0.0,0.0,88,0.00,,,0.00,Wunderground v.1.15,2013-10-12 05:17:00,
2013-10-12 01:18:00,38.6,35.4,30.14,SSW,194,0.0,0.0,88,0.00,,,0.00,Wunderground v.1.15,2013-10-12 05:18:00,
2013-10-12 01:19:00,38.6,35.4,30.14,SSW,194,0.0,0.0,88,0.00,,,0.00,Wunderground v.1.15,2013-10-12 05:19:00,
2013-10-12 01:20:00,38.6,35.4,30.14,SSW,194,0.0,0.0,88,0.00,,,0.00,Wunderground v.1.15,2013-10-12 05:20:00,
2013-10-12 01:21:00,38.6,35.4,30.14,SSW,194,0.0,0.0,88,0.00,,,0.00,Wunderground v.1.15,2013-10-12 05:21:00,
2013-10-12 01:22:00,59.5,56.3,29.92,ENE,74,0.0,0.0,89,0.00,,,0.00,Wunderground v.1.15,2013-10-12 05:22:00,
2013-10-12 01:23:00,38.6,35.4,30.14,SSW,194,0.0,0.0,88,0.00,,,0.00,Wunderground v.1.15,2013-10-12 05:23:00,
2013-10-12 01:24:00,38.6,35.4,30.14,SSW,194,0.0,0.0,88,0.00,,,0.00,Wunderground v.1.15,2013-10-12 05:24:00,
2013-10-12 01:25:00,38.5,35.3,30.14,SSW,194,0.0,0.0,88,0.00,,,0.00,Wunderground v.1.15,2013-10-12 05:25:00,
2013-10-12 01:26:00,38.5,35.5,30.14,SSW,194,0.0,0.0,89,0.00,,,0.00,Wunderground v.1.15,2013-10-12 05:26:00,
2013-10-12 01:27:00,59.4,56.2,29.92,ENE,74,0.0,0.0,89,0.00,,,0.00,Wunderground v.1.15,2013-10-12 05:27:00,
2013-10-12 01:28:00,38.5,35.5,30.14,SSW,194,0.0,0.0,89,0.00,,,0.00,Wunderground v.1.15,2013-10-12 05:28:00,
2013-10-12 01:29:00,38.5,35.5,30.14,SSW,194,0.0,0.0,89,0.00,,,0.00,Wunderground v.1.15,2013-10-12 05:29:00,
2013-10-12 01:30:00,38.5,35.5,30.14,SSW,194,0.0,0.0,89,0.00,,,0.00,Wunderground v.1.15,2013-10-12 05:30:00,
2013-10-12 01:31:00,38.5,35.5,30.14,SSW,194,0.0,0.0,89,0.00,,,0.00,Wunderground v.1.15,2013-10-12 05:31:00,
2013-10-12 01:32:00,59.4,56.2,29.92,ENE,74,0.0,0.0,89,0.00,,,0.00,Wunderground v.1.15,2013-10-12 05:32:00,
2013-10-12 01:33:00,38.4,35.4,30.14,SSW,194,0.0,0.0,89,0.00,,,0.00,Wunderground v.1.15,2013-10-12 05:33:00,
2013-10-12 01:34:00,38.4,35.4,30.14,SSW,194,0.0,0.0,89,0.00,,,0.00,Wunderground v.1.15,2013-10-12 05:34:00,
2013-10-12 01:35:00,38.4,35.4,30.14,SSW,194,0.0,0.0,89,0.00,,,0.00,Wunderground v.1.15,2013-10-12 05:35:00,
2013-10-12 01:36:00,38.4,35.4,30.14,SSW,194,0.0,0.0,89,0.00,,,0.00,Wunderground v.1.15,2013-10-12 05:36:00,
2013-10-12 01:37:00,59.4,56.5,29.92,ENE,74,0.0,0.0,90,0.00,,,0.00,Wunderground v.1.15,2013-10-12 05:37:00,
2013-10-12 01:38:00,38.4,35.4,30.14,SSW,194,0.0,0.0,89,0.00,,,0.00,Wunderground v.1.15,2013-10-12 05:38:00,
2013-10-12 01:39:00,38.3,35.1,30.14,SSW,194,0.0,0.0,88,0.00,,,0.00,Wunderground v.1.15,2013-10-12 05:39:00,
2013-10-12 01:40:00,38.3,35.1,30.14,SSW,194,0.0,0.0,88,0.00,,,0.00,Wunderground v.1.15,2013-10-12 05:40:00,
2013-10-12 01:41:00,38.3,35.3,30.14,SSW,194,0.0,0.0,89,0.00,,,0.00,Wunderground v.1.15,2013-10-12 05:41:00,
2013-10-12 01:42:00,59.3,56.1,29.93,ENE,74,0.0,0.0,89,0.00,,,0.00,Wunderground v.1.15,2013-10-12 05:42:00,
2013-10-12 01:43:00,38.2,35.2,30.14,SSW,194,0.0,0.0,89,0.00,,,0.00,Wunderground v.1.15,2013-10-12 05:43:00,
2013-10-12 01:44:00,38.2,35.2,30.14,SSW,194,0.0,0.0,89,0.00,,,0.00,Wunderground v.1.15,2013-10-12 05:44:00,
2013-10-12 01:45:00,38.2,35.2,30.14,SSW,194,0.0,0.0,89,0.00,,,0.00,Wunderground v.1.15,2013-10-12 05:45:00,
2013-10-12 01:46:00,38.2,35.2,30.14,SSW,194,0.0,0.0,89,0.00,,,0.00,Wunderground v.1.15,2013-10-12 05:46:00,
2013-10-12 01:47:00,59.1,55.9,29.93,ENE,74,0.0,0.0,89,0.00,,,0.00,Wunderground v.1.15,2013-10-12 05:47:00,
2013-10-12 01:48:00,38.1,35.1,30.14,SSW,194,0.0,0.0,89,0.00,,,0.00,Wunderground v.1.15,2013-10-12 05:48:00,
2013-10-12 01:49:00,38.1,35.1,30.14,SSW,194,0.0,0.0,89,0.00,,,0.00,Wunderground v.1.15,2013-10-12 05:49:00,
2013-10-12 01:50:00,38.0,35.0,30.14,SSW,194,0.0,0.0,89,0.00,,,0.00,Wunderground v.1.15,2013-10-12 05:50:00,
2013-10-12 01:51:00,38.0,35.0,30.14,SSW,194,0.0,0.0,89,0.00,,,0.00,Wunderground v.1.15,2013-10-12 05:51:00,
2013-10-12 01:52:00,58.7,55.5,29.93,ENE,74,0.0,0.0,89,0.00,,,0.00,Wunderground v.1.15,2013-10-12 05:52:00,
2013-10-12 01:53:00,37.9,34.9,30.14,SSW,194,0.0,0.0,89,0.00,,,0.00,Wunderground v.1.15,2013-10-12 05:53:00,
2013-10-12 01:54:00,37.9,34.9,30.14,SSW,194,0.0,0.0,89,0.00,,,0.00,Wunderground v.1.15,2013-10-12 05:54:00,
2013-10-12 01:55:00,37.9,34.9,30.14,SSW,194,0.0,0.0,89,0.00,,,0.00,Wunderground v.1.15,2013-10-12 05:55:00,
2013-10-12 01:56:00,37.8,34.8,30.14,SSW,194,0.0,0.0,89,0.00,,,0.00,Wunderground v.1.15,2013-10-12 05:56:00,
2013-10-12 01:57:00,58.6,55.4,29.93,ENE,74,0.0,0.0,89,0.00,,,0.00,Wunderground v.1.15,2013-10-12 05:57:00,
2013-10-12 01:58:00,37.8,34.6,30.14,SSW,194,0.0,0.0,88,0.00,,,0.00,Wunderground v.1.15,2013-10-12 05:58:00,
2013-10-12 01:59:00,37.8,34.6,30.14,SSW,194,0.0,0.0,88,0.00,,,0.00,Wunderground v.1.15,2013-10-12 05:59:00,
2013-10-12 02:00:00,37.7,34.5,30.14,SSW,194,0.0,0.0,88,0.00,,,0.00,Wunderground v.1.15,2013-10-12 06:00:00,
2013-10-12 02:01:00,37.6,34.4,30.14,SSW,194,0.0,0.0,88,0.00,,,0.00,Wunderground v.1.15,2013-10-12 06:01:00,
2013-10-12 02:02:00,58.5,55.6,29.93,ENE,74,0.0,0.0,90,0.00,,,0.00,Wunderground v.1.15,2013-10-12 06:02:00,
2013-10-12 02:03:00,37.5,34.3,30.14,SSW,194,0.0,0.0,88,0.00,,,0.00,Wunderground v.1.15,2013-10-12 06:03:00,
2013-10-12 02:04:00,37.5,34.3,30.14,SSW,194,0.0,0.0,88,0.00,,,0.00,Wunderground v.1.15,2013-10-12 06:04:00,
2013-10-12 02:05:00,37.4,34.2,30.14,SSW,194,0.0,0.0,88,0.00,,,0.00,Wunderground v.1.15,2013-10-12 06:05:00,
2013-10-12 02:06:00,37.3,34.1,30.14,SSW,194,0.0,0.0,88,0.00,,,0.00,Wunderground v.1.15,2013-10-12 06:06:00,
2013-10-12 02:08:00,58.5,55.6,29.93,ENE,74,0.0,0.0,90,0.00,,,0.00,Wunderground v.1.15,2013-10-12 06:08:00,
2013-10-12 02:13:00,58.4,55.5,29.93,ENE,74,0.0,0.0,90,0.00,,,0.00,Wunderground v.1.15,2013-10-12 06:13:00,
2013-10-12 02:19:00,58.2,55.0,29.93,ENE,74,0.0,0.0,89,0.00,,,0.00,Wunderground v.1.15,2013-10-12 06:19:00,
2013-10-12 02:24:00,58.2,55.3,29.93,ENE,74,0.0,0.0,90,0.00,,,0.00,Wunderground v.1.15,2013-10-12 06:24:00,
2013-10-12 02:29:00,58.2,55.6,29.93,ENE,74,0.0,0.0,91,0.00,,,0.00,Wunderground v.1.15,2013-10-12 06:29:00,
2013-10-12 02:34:00,58.2,55.6,29.93,ENE,74,0.0,0.0,91,0.00,,,0.00,Wunderground v.1.15,2013-10-12 06:34:00,
2013-10-12 02:39:00,58.0,55.1,29.93,ENE,74,0.0,0.0,90,0.00,,,0.00,Wunderground v.1.15,2013-10-12 06:39:00,
2013-10-12 02:44:00,57.8,54.9,29.93,ENE,74,0.0,0.0,90,0.00,,,0.00,Wunderground v.1.15,2013-10-12 06:44:00,
2013-10-12 02:49:00,57.6,55.0,29.93,ENE,74,0.0,0.0,91,0.00,,,0.00,Wunderground v.1.15,2013-10-12 06:49:00,
2013-10-12 02:54:00,57.5,54.6,29.93,ENE,74,0.0,0.0,90,0.00,,,0.00,Wunderground v.1.15,2013-10-12 06:54:00,
2013-10-12 02:59:00,57.3,54.4,29.93,ENE,74,0.0,0.0,90,0.00,,,0.00,Wunderground v.1.15,2013-10-12 06:59:00,
2013-10-12 03:04:00,57.2,54.6,29.93,ENE,74,0.0,0.0,91,0.00,,,0.00,Wunderground v.1.15,2013-10-12 07:04:00,
2013-10-12 03:09:00,57.2,54.6,29.93,ENE,74,0.0,0.0,91,0.00,,,0.00,Wunderground v.1.15,2013-10-12 07:09:00,
2013-10-12 03:14:00,57.2,54.9,29.93,ENE,74,0.0,0.0,92,0.00,,,0.00,Wunderground v.1.15,2013-10-12 07:14:00,
2013-10-12 03:19:00,57.1,54.5,29.93,ENE,74,0.0,0.0,91,0.00,,,0.00,Wunderground v.1.15,2013-10-12 07:19:00,
2013-10-12 03:24:00,56.9,54.0,29.93,ENE,74,0.0,0.0,90,0.00,,,0.00,Wunderground v.1.15,2013-10-12 07:24:00,
2013-10-12 03:29:00,56.8,54.2,29.93,ENE,74,0.0,0.0,91,0.00,,,0.00,Wunderground v.1.15,2013-10-12 07:29:00,
2013-10-12 03:34:00,56.8,54.5,29.93,ENE,74,0.0,0.0,92,0.00,,,0.00,Wunderground v.1.15,2013-10-12 07:34:00,
2013-10-12 03:39:00,56.8,54.5,29.93,ENE,74,0.0,0.0,92,0.00,,,0.00,Wunderground v.1.15,2013-10-12 07:39:00,
2013-10-12 03:44:00,56.8,54.5,29.93,ENE,74,0.0,0.0,92,0.00,,,0.00,Wunderground v.1.15,2013-10-12 07:44:00,
2013-10-12 03:49:00,56.7,54.1,29.93,ENE,74,0.0,0.0,91,0.00,,,0.00,Wunderground v.1.15,2013-10-12 07:49:00,
2013-10-12 03:54:00,56.6,54.3,29.94,ENE,74,0.0,0.0,92,0.00,,,0.00,Wunderground v.1.15,2013-10-12 07:54:00,
2013-10-12 03:59:00,56.5,53.9,29.93,ENE,74,0.0,0.0,91,0.00,,,0.00,Wunderground v.1.15,2013-10-12 07:59:00,
2013-10-12 04:04:00,56.3,54.0,29.93,ENE,74,0.0,0.0,92,0.00,,,0.00,Wunderground v.1.15,2013-10-12 08:04:00,
2013-10-12 04:09:00,56.2,53.9,29.93,ENE,74,0.0,0.0,92,0.00,,,0.00,Wunderground v.1.15,2013-10-12 08:09:00,
2013-10-12 04:14:00,56.2,53.9,29.93,ENE,74,0.0,0.0,92,0.00,,,0.00,Wunderground v.1.15,2013-10-12 08:14:00,
2013-10-12 04:19:00,56.2,54.2,29.94,ENE,74,0.0,0.0,93,0.00,,,0.00,Wunderground v.1.15,2013-10-12 08:19:00,
2013-10-12 04:24:00,56.1,53.8,29.93,ENE,74,0.0,0.0,92,0.00,,,0.00,Wunderground v.1.15,2013-10-12 08:24:00,
2013-10-12 04:29:00,55.9,53.6,29.93,ENE,74,0.0,0.0,92,0.00,,,0.00,Wunderground v.1.15,2013-10-12 08:29:00,
2013-10-12 04:34:00,55.7,53.1,29.93,ENE,74,0.0,0.0,91,0.00,,,0.00,Wunderground v.1.15,2013-10-12 08:34:00,
2013-10-12 04:39:00,55.4,52.8,29.94,ENE,74,0.0,0.0,91,0.00,,,0.00,Wunderground v.1.15,2013-10-12 08:39:00,
2013-10-12 04:44:00,55.2,52.6,29.94,ENE,74,0.0,0.0,91,0.00,,,0.00,Wunderground v.1.15,2013-10-12 08:44:00,
2013-10-12 04:49:00,55.1,52.5,29.94,ENE,74,0.0,0.0,91,0.00,,,0.00,Wunderground v.1.15,2013-10-12 08:49:00,
2013-10-12 04:54:00,55.0,52.7,29.94,ENE,74,0.0,0.0,92,0.00,,,0.00,Wunderground v.1.15,2013-10-12 08:54:00,
2013-10-12 04:59:00,55.0,52.7,29.94,ENE,74,0.0,0.0,92,0.00,,,0.00,Wunderground v.1.15,2013-10-12 08:59:00,
2013-10-12 05:04:00,55.0,52.7,29.94,ENE,74,0.0,0.0,92,0.00,,,0.00,Wunderground v.1.15,2013-10-12 09:04:00,
2013-10-12 05:09:00,54.9,52.6,29.94,ENE,74,0.0,0.0,92,0.00,,,0.00,Wunderground v.1.15,2013-10-12 09:09:00,
2013-10-12 05:14:00,54.7,52.4,29.95,ENE,74,0.0,0.0,92,0.00,,,0.00,Wunderground v.1.15,2013-10-12 09:14:00,
2013-10-12 05:19:00,54.6,52.3,29.95,ENE,74,0.0,0.0,92,0.00,,,0.00,Wunderground v.1.15,2013-10-12 09:19:00,
2013-10-12 05:24:00,54.5,51.9,29.95,ENE,74,0.0,0.0,91,0.00,,,0.00,Wunderground v.1.15,2013-10-12 09:24:00,
2013-10-12 05:29:00,54.5,52.2,29.95,ENE,74,0.0,0.0,92,0.00,,,0.00,Wunderground v.1.15,2013-10-12 09:29:00,
2013-10-12 05:34:00,54.5,52.2,29.95,ENE,74,0.0,0.0,92,0.00,,,0.00,Wunderground v.1.15,2013-10-12 09:34:00,
2013-10-12 05:40:00,54.6,52.3,29.95,ENE,74,0.0,0.0,92,0.00,,,0.00,Wunderground v.1.15,2013-10-12 09:40:00,
2013-10-12 05:45:00,54.6,52.3,29.95,ENE,74,0.0,0.0,92,0.00,,,0.00,Wunderground v.1.15,2013-10-12 09:45:00,
2013-10-12 05:50:00,54.6,52.3,29.95,ENE,74,0.0,0.0,92,0.00,,,0.00,Wunderground v.1.15,2013-10-12 09:50:00,
2013-10-12 05:55:00,54.4,51.8,29.95,ENE,74,0.0,0.0,91,0.00,,,0.00,Wunderground v.1.15,2013-10-12 09:55:00,
2013-10-12 06:00:00,54.2,51.9,29.95,ENE,74,0.0,0.0,92,0.00,,,0.00,Wunderground v.1.15,2013-10-12 10:00:00,
2013-10-12 06:05:00,54.1,52.1,29.95,ENE,74,0.0,0.0,93,0.00,,,0.00,Wunderground v.1.15,2013-10-12 10:05:00,
2013-10-12 06:10:00,54.1,52.1,29.96,ENE,74,0.0,0.0,93,0.00,,,0.00,Wunderground v.1.15,2013-10-12 10:10:00,
2013-10-12 06:15:00,54.1,52.1,29.96,ENE,74,0.0,0.0,93,0.00,,,0.00,Wunderground v.1.15,2013-10-12 10:15:00,
2013-10-12 06:20:00,54.0,51.7,29.96,ENE,74,0.0,0.0,92,0.00,,,0.00,Wunderground v.1.15,2013-10-12 10:20:00,
2013-10-12 06:25:00,53.9,51.6,29.96,ENE,74,0.0,0.0,92,0.00,,,0.00,Wunderground v.1.15,2013-10-12 10:25:00,
2013-10-12 06:30:00,53.7,51.1,29.96,ENE,74,0.0,0.0,91,0.00,,,0.00,Wunderground v.1.15,2013-10-12 10:30:00,
2013-10-12 06:35:00,53.6,51.3,29.96,ENE,74,0.0,0.0,92,0.00,,,0.00,Wunderground v.1.15,2013-10-12 10:35:00,
2013-10-12 06:40:00,53.6,51.3,29.96,ENE,74,0.0,0.0,92,0.00,,,0.00,Wunderground v.1.15,2013-10-12 10:40:00,
2013-10-12 06:45:00,53.6,51.3,29.96,ENE,74,0.0,0.0,92,0.00,,,0.00,Wunderground v.1.15,2013-10-12 10:45:00,
2013-10-12 06:50:00,53.6,51.3,29.96,ENE,74,0.0,0.0,92,0.00,,,0.00,Wunderground v.1.15,2013-10-12 10:50:00,
2013-10-12 06:55:00,53.6,51.3,29.96,ENE,74,0.0,0.0,92,0.00,,,0.00,Wunderground v.1.15,2013-10-12 10:55:00,
2013-10-12 07:00:00,53.7,51.7,29.97,ENE,74,0.0,0.0,93,0.00,,,0.00,Wunderground v.1.15,2013-10-12 11:00:00,
2013-10-12 07:05:00,53.8,51.8,29.97,ENE,74,0.0,0.0,93,0.00,,,0.00,Wunderground v.1.15,2013-10-12 11:05:00,
2013-10-12 07:10:00,53.7,51.4,29.97,ENE,74,0.0,0.0,92,0.00,,,0.00,Wunderground v.1.15,2013-10-12 11:10:00,
2013-10-12 07:15:00,53.4,50.8,29.97,ENE,74,0.0,0.0,91,0.00,,,0.00,Wunderground v.1.15,2013-10-12 11:15:00,
2013-10-12 07:20:00,53.1,50.5,29.97,ENE,74,0.0,0.0,91,0.00,,,0.00,Wunderground v.1.15,2013-10-12 11:20:00,
2013-10-12 07:25:00,53.0,50.7,29.97,SSW,206,0.0,0.0,92,0.00,,,0.00,Wunderground v.1.15,2013-10-12 11:25:00,
2013-10-12 07:30:00,53.0,51.0,29.97,SSW,206,0.0,0.0,93,0.00,,,0.00,Wunderground v.1.15,2013-10-12 11:30:00,
2013-10-12 07:35:00,53.1,51.1,29.97,SSW,206,0.0,0.0,93,0.00,,,0.00,Wunderground v.1.15,2013-10-12 11:35:00,
2013-10-12 07:40:00,53.1,51.1,29.97,SSW,206,0.0,0.0,93,0.00,,,0.00,Wunderground v.1.15,2013-10-12 11:40:00,
2013-10-12 07:45:00,53.0,50.7,29.97,SSW,206,0.0,0.0,92,0.00,,,0.00,Wunderground v.1.15,2013-10-12 11:45:00,
2013-10-12 07:50:00,53.0,51.0,29.97,SSW,206,0.0,0.0,93,0.00,,,0.00,Wunderground v.1.15,2013-10-12 11:50:00,
2013-10-12 07:55:00,53.1,51.1,29.98,SSW,206,0.0,0.0,93,0.00,,,0.00,Wunderground v.1.15,2013-10-12 11:55:00,
2013-10-12 08:00:00,53.3,51.3,29.98,SSW,206,0.0,0.0,93,0.00,,,0.00,Wunderground v.1.15,2013-10-12 12:00:00,
2013-10-12 08:05:00,53.5,51.8,29.98,SSW,206,0.0,0.0,94,0.00,,,0.00,Wunderground v.1.15,2013-10-12 12:05:00,
2013-10-12 08:10:00,53.7,52.0,29.98,East,90,0.0,0.0,94,0.00,,,0.00,Wunderground v.1.15,2013-10-12 12:10:00,
2013-10-12 08:15:00,53.9,52.2,29.99,East,90,0.0,0.0,94,0.00,,,0.00,Wunderground v.1.15,2013-10-12 12:15:00,
2013-10-12 08:20:00,54.0,52.3,29.99,East,90,0.0,0.0,94,0.00,,,0.00,Wunderground v.1.15,2013-10-12 12:20:00,
2013-10-12 08:25:00,54.2,52.2,29.99,East,90,0.0,0.0,93,0.00,,,0.00,Wunderground v.1.15,2013-10-12 12:25:00,
2013-10-12 08:30:00,54.5,52.5,29.99,East,90,0.0,0.0,93,0.00,,,0.00,Wunderground v.1.15,2013-10-12 12:30:00,
2013-10-12 08:35:00,54.8,52.8,29.99,East,90,0.0,0.0,93,0.00,,,0.00,Wunderground v.1.15,2013-10-12 12:35:00,
2013-10-12 08:40:00,55.1,53.4,29.99,East,90,0.0,0.0,94,0.00,,,0.00,Wunderground v.1.15,2013-10-12 12:40:00,
2013-10-12 08:45:00,55.7,54.0,29.99,East,90,0.0,0.0,94,0.00,,,0.00,Wunderground v.1.15,2013-10-12 12:45:00,
2013-10-12 08:50:00,56.2,54.5,29.99,East,92,0.0,0.0,94,0.00,,,0.00,Wunderground v.1.15,2013-10-12 12:50:00,
2013-10-12 08:55:00,56.9,55.5,30.00,East,92,0.0,0.0,95,0.00,,,0.00,Wunderground v.1.15,2013-10-12 12:55:00,
2013-10-12 09:00:00,57.7,56.3,30.00,East,92,0.0,0.0,95,0.00,,,0.00,Wunderground v.1.15,2013-10-12 13:00:00,
2013-10-12 09:06:00,58.4,57.0,30.00,West,273,0.0,0.0,95,0.00,,,0.00,Wunderground v.1.15,2013-10-12 13:06:00,
2013-10-12 09:11:00,58.8,57.1,30.00,WNW,284,0.0,0.0,94,0.00,,,0.00,Wunderground v.1.15,2013-10-12 13:11:00,
2013-10-12 09:16:00,59.2,57.5,30.00,WNW,284,0.0,0.0,94,0.00,,,0.00,Wunderground v.1.15,2013-10-12 13:16:00,
2013-10-12 09:21:00,59.6,57.6,30.00,WNW,284,0.0,0.0,93,0.00,,,0.00,Wunderground v.1.15,2013-10-12 13:21:00,
2013-10-12 09:26:00,60.0,58.0,30.01,NW,307,0.0,4.0,93,0.00,,,0.00,Wunderground v.1.15,2013-10-12 13:26:00,
2013-10-12 09:31:00,60.4,58.1,30.01,NW,311,1.0,4.0,92,0.00,,,0.00,Wunderground v.1.15,2013-10-12 13:31:00,
2013-10-12 09:36:00,60.7,58.1,30.01,NW,323,0.0,5.0,91,0.00,,,0.00,Wunderground v.1.15,2013-10-12 13:36:00,
2013-10-12 09:41:00,61.2,58.2,30.01,NNE,14,0.0,6.0,90,0.00,,,0.00,Wunderground v.1.15,2013-10-12 13:41:00,
2013-10-12 09:46:00,61.6,58.6,30.01,NNE,19,0.0,6.0,90,0.00,,,0.00,Wunderground v.1.15,2013-10-12 13:46:00,
2013-10-12 09:51:00,62.1,58.8,30.01,NNE,19,3.0,4.0,89,0.00,,,0.00,Wunderground v.1.15,2013-10-12 13:51:00,
2013-10-12 09:56:00,62.6,59.3,30.01,NNE,19,0.0,4.0,89,0.00,,,0.00,Wunderground v.1.15,2013-10-12 13:56:00,
2013-10-12 10:01:00,63.2,59.6,30.01,NNE,19,0.0,2.0,88,0.00,,,0.00,Wunderground v.1.15,2013-10-12 14:01:00,
2013-10-12 10:06:00,63.8,60.2,30.01,NNE,19,0.0,3.0,88,0.00,,,0.00,Wunderground v.1.15,2013-10-12 14:06:00,
2013-10-12 10:11:00,64.5,60.5,30.01,NNE,19,3.0,3.0,87,0.00,,,0.00,Wunderground v.1.15,2013-10-12 14:11:00,
2013-10-12 10:16:00,65.3,60.7,30.01,NNE,21,0.0,3.0,85,0.00,,,0.00,Wunderground v.1.15,2013-10-12 14:16:00,
2013-10-12 10:21:00,65.9,60.9,30.01,NNE,21,0.0,0.0,84,0.00,,,0.00,Wunderground v.1.15,2013-10-12 14:21:00,
2013-10-12 10:26:00,66.6,61.6,30.01,NNE,30,0.0,0.0,84,0.00,,,0.00,Wunderground v.1.15,2013-10-12 14:26:00,
2013-10-12 10:31:00,67.0,61.3,30.01,NNE,28,1.0,4.0,82,0.00,,,0.00,Wunderground v.1.15,2013-10-12 14:31:00,
2013-10-12 10:36:00,67.4,61.7,30.01,NNE,28,1.0,4.0,82,0.00,,,0.00,Wunderground v.1.15,2013-10-12 14:36:00,
2013-10-12 10:41:00,67.9,62.2,30.01,NNE,30,2.0,3.0,82,0.00,,,0.00,Wunderground v.1.15,2013-10-12 14:41:00,
2013-10-12 10:46:00,68.6,62.5,30.01,NNE,30,0.0,3.0,81,0.00,,,0.00,Wunderground v.1.15,2013-10-12 14:46:00,
2013-10-12 10:51:00,69.4,62.6,30.00,NNE,30,0.0,1.0,79,0.00,,,0.00,Wunderground v.1.15,2013-10-12 14:51:00,
2013-10-12 10:56:00,70.3,62.4,30.01,South,175,1.0,1.0,76,0.00,,,0.00,Wunderground v.1.15,2013-10-12 14:56:00,
2013-10-12 11:02:00,70.8,62.9,30.00,South,175,0.0,6.0,76,0.00,,,0.00,Wunderground v.1.15,2013-10-12 15:02:00,
2013-10-12 11:07:00,71.4,63.1,30.01,South,189,5.0,5.0,75,0.00,,,0.00,Wunderground v.1.15,2013-10-12 15:07:00,
2013-10-12 11:12:00,71.8,63.1,30.01,SSW,204,2.0,6.0,74,0.00,,,0.00,Wunderground v.1.15,2013-10-12 15:12:00,
2013-10-12 11:17:00,72.2,63.1,30.00,SSE,167,5.0,5.0,73,0.00,,,0.00,Wunderground v.1.15,2013-10-12 15:17:00,
2013-10-12 11:22:00,72.8,63.2,30.00,South,169,4.0,6.0,72,0.00,,,0.00,Wunderground v.1.15,2013-10-12 15:22:00,
2013-10-12 11:27:00,73.1,62.7,30.00,South,174,0.0,3.0,70,0.00,,,0.00,Wunderground v.1.15,2013-10-12 15:27:00,
2013-10-12 11:32:00,73.3,62.9,30.00,South,177,5.0,7.0,70,0.00,,,0.00,Wunderground v.1.15,2013-10-12 15:32:00,
2013-10-12 11:37:00,73.4,62.6,30.00,South,178,0.0,3.0,69,0.00,,,0.00,Wunderground v.1.15,2013-10-12 15:37:00,
2013-10-12 11:42:00,73.7,63.7,30.01,East,85,2.0,3.0,71,0.00,,,0.00,Wunderground v.1.15,2013-10-12 15:42:00,
2013-10-12 11:47:00,74.4,63.6,30.00,South,184,4.0,4.0,69,0.00,,,0.00,Wunderground v.1.15,2013-10-12 15:47:00,
2013-10-12 11:52:00,75.1,63.8,30.01,South,182,0.0,5.0,68,0.00,,,0.00,Wunderground v.1.15,2013-10-12 15:52:00,
2013-10-12 11:57:00,75.3,63.6,30.00,South,181,0.0,2.0,67,0.00,,,0.00,Wunderground v.1.15,2013-10-12 15:57:00,
2013-10-12 12:02:00,75.7,63.5,30.00,South,181,4.0,5.0,66,0.00,,,0.00,Wunderground v.1.15,2013-10-12 16:02:00,
2013-10-12 12:07:00,76.0,63.4,30.00,South,183,4.0,5.0,65,0.00,,,0.00,Wunderground v.1.15,2013-10-12 16:07:00,
2013-10-12 12:12:00,76.1,63.5,30.00,South,184,0.0,5.0,65,0.00,,,0.00,Wunderground v.1.15,2013-10-12 16:12:00,
2013-10-12 12:17:00,76.4,62.4,30.00,South,184,1.0,6.0,62,0.00,,,0.00,Wunderground v.1.15,2013-10-12 16:17:00,
2013-10-12 12:22:00,76.8,62.3,29.99,South,184,0.0,6.0,61,0.00,,,0.00,Wunderground v.1.15,2013-10-12 16:22:00,
2013-10-12 12:27:00,77.2,61.8,29.99,South,184,0.0,3.0,59,0.00,,,0.00,Wunderground v.1.15,2013-10-12 16:27:00,
2013-10-12 12:32:00,77.7,62.7,29.99,South,184,0.0,3.0,60,0.00,,,0.00,Wunderground v.1.15,2013-10-12 16:32:00,
2013-10-12 12:37:00,78.5,62.5,29.99,South,184,0.0,1.0,58,0.00,,,0.00,Wunderground v.1.15,2013-10-12 16:37:00,
2013-10-12 12:42:00,79.4,63.3,29.99,East,93,2.0,4.0,58,0.00,,,0.00,Wunderground v.1.15,2013-10-12 16:42:00,
2013-10-12 12:47:00,79.8,62.2,29.99,South,180,1.0,4.0,55,0.00,,,0.00,Wunderground v.1.15,2013-10-12 16:47:00,
2013-10-12 12:52:00,79.8,62.2,29.99,South,181,0.0,5.0,55,0.00,,,0.00,Wunderground v.1.15,2013-10-12 16:52:00,
2013-10-12 12:57:00,80.2,63.1,29.99,South,181,0.0,1.0,56,0.00,,,0.00,Wunderground v.1.15,2013-10-12 16:57:00,
2013-10-12 13:03:00,80.5,60.7,29.98,South,178,1.0,6.0,51,0.00,,,0.00,Wunderground v.1.15,2013-10-12 17:03:00,
2013-10-12 13:07:00,80.5,60.1,29.99,SW,227,0.0,1.0,50,0.00,,,0.00,Wunderground v.1.15,2013-10-12 17:07:00,
2013-10-12 13:12:00,80.5,59.6,29.98,SSE,165,4.0,5.0,49,0.00,,,0.00,Wunderground v.1.15,2013-10-12 17:12:00,
2013-10-12 13:18:00,80.7,59.8,29.98,NNW,333,0.0,2.0,49,0.00,,,0.00,Wunderground v.1.15,2013-10-12 17:18:00,
2013-10-12 13:22:00,81.1,59.6,29.98,South,180,0.0,2.0,48,0.00,,,0.00,Wunderground v.1.15,2013-10-12 17:22:00,
2013-10-12 13:28:00,81.5,60.5,29.98,SW,233,0.0,2.0,49,0.00,,,0.00,Wunderground v.1.15,2013-10-12 17:28:00,
2013-10-12 13:33:00,81.9,59.7,29.98,NE,46,4.0,5.0,47,0.00,,,0.00,Wunderground v.1.15,2013-10-12 17:33:00,
2013-10-12 13:38:00,82.1,59.9,29.98,SSE,167,4.0,4.0,47,0.00,,,0.00,Wunderground v.1.15,2013-10-12 17:38:00,
2013-10-12 13:43:00,81.9,60.9,29.98,ENE,59,0.0,4.0,49,0.00,,,0.00,Wunderground v.1.15,2013-10-12 17:43:00,
2013-10-12 13:48:00,81.5,59.3,29.97,NNE,26,2.0,5.0,47,0.00,,,0.00,Wunderground v.1.15,2013-10-12 17:48:00,
2013-10-12 13:53:00,80.6,59.1,29.97,NE,51,2.0,5.0,48,0.00,,,0.00,Wunderground v.1.15,2013-10-12 17:53:00,
2013-10-12 13:58:00,80.1,59.2,29.97,NE,51,0.0,3.0,49,0.00,,,0.00,Wunderground v.1.15,2013-10-12 17:58:00,
2013-10-12 14:03:00,80.5,59.6,29.97,NE,44,0.0,5.0,49,0.00,,,0.00,Wunderground v.1.15,2013-10-12 18:03:00,
2013-10-12 14:08:00,81.1,60.7,29.97,NE,39,2.0,5.0,50,0.00,,,0.00,Wunderground v.1.15,2013-10-12 18:08:00,
2013-10-12 14:13:00,80.8,59.9,29.97,NE,46,4.0,8.0,49,0.00,,,0.00,Wunderground v.1.15,2013-10-12 18:13:00,
2013-10-12 14:18:00,80.1,59.8,29.97,NNE,24,4.0,4.0,50,0.00,,,0.00,Wunderground v.1.15,2013-10-12 18:18:00,
2013-10-12 14:23:00,79.8,59.5,29.97,NNE,19,0.0,4.0,50,0.00,,,0.00,Wunderground v.1.15,2013-10-12 18:23:00,
2013-10-12 14:28:00,79.7,59.4,29.96,NNE,28,0.0,1.0,50,0.00,,,0.00,Wunderground v.1.15,2013-10-12 18:28:00,
2013-10-12 14:33:00,79.6,59.9,29.96,NNE,28,0.0,1.0,51,0.00,,,0.00,Wunderground v.1.15,2013-10-12 18:33:00,
2013-10-12 14:38:00,79.6,59.3,29.97,NNE,28,2.0,2.0,50,0.00,,,0.00,Wunderground v.1.15,2013-10-12 18:38:00,
2013-10-12 14:43:00,80.1,58.6,29.96,NNE,28,0.0,2.0,48,0.00,,,0.00,Wunderground v.1.15,2013-10-12 18:43:00,
2013-10-12 14:48:00,80.8,58.7,29.96,WNW,302,2.0,4.0,47,0.00,,,0.00,Wunderground v.1.15,2013-10-12 18:48:00,
2013-10-12 14:53:00,81.4,58.6,29.96,ENE,65,4.0,6.0,46,0.00,,,0.00,Wunderground v.1.15,2013-10-12 18:53:00,
2013-10-12 14:58:00,81.6,59.4,29.96,ENE,64,0.0,4.0,47,0.00,,,0.00,Wunderground v.1.15,2013-10-12 18:58:00,
2013-10-12 15:03:00,82.2,59.4,29.96,ENE,74,1.0,5.0,46,0.00,,,0.00,Wunderground v.1.15,2013-10-12 19:03:00,
2013-10-12 15:08:00,82.6,59.1,29.96,NE,40,5.0,6.0,45,0.00,,,0.00,Wunderground v.1.15,2013-10-12 19:08:00,
2013-10-12 15:13:00,82.3,58.2,29.96,NE,42,2.0,6.0,44,0.00,,,0.00,Wunderground v.1.15,2013-10-12 19:13:00,
2013-10-12 15:18:00,81.7,58.9,29.96,NE,40,3.0,4.0,46,0.00,,,0.00,Wunderground v.1.15,2013-10-12 19:18:00,
2013-10-12 15:23:00,81.4,58.6,29.96,ENE,69,1.0,4.0,46,0.00,,,0.00,Wunderground v.1.15,2013-10-12 19:23:00,
2013-10-12 15:28:00,81.2,59.1,29.96,ENE,64,3.0,5.0,47,0.00,,,0.00,Wunderground v.1.15,2013-10-12 19:28:00,
2013-10-12 15:33:00,80.6,59.1,29.97,ENE,59,3.0,5.0,48,0.00,,,0.00,Wunderground v.1.15,2013-10-12 19:33:00,
2013-10-12 15:38:00,80.5,59.6,29.96,ENE,67,3.0,4.0,49,0.00,,,0.00,Wunderground v.1.15,2013-10-12 19:38:00,
2013-10-12 15:43:00,80.9,59.4,29.97,East,84,0.0,5.0,48,0.00,,,0.00,Wunderground v.1.15,2013-10-12 19:43:00,
2013-10-12 15:48:00,81.0,59.5,29.97,East,81,2.0,3.0,48,0.00,,,0.00,Wunderground v.1.15,2013-10-12 19:48:00,
2013-10-12 15:53:00,80.7,59.2,29.97,East,79,2.0,3.0,48,0.00,,,0.00,Wunderground v.1.15,2013-10-12 19:53:00,
2013-10-12 15:59:00,80.3,59.4,29.97,NE,49,2.0,5.0,49,0.00,,,0.00,Wunderground v.1.15,2013-10-12 19:59:00,
2013-10-12 16:04:00,80.0,59.7,29.97,ENE,57,2.0,5.0,50,0.00,,,0.00,Wunderground v.1.15,2013-10-12 20:04:00,
2013-10-12 16:09:00,79.8,60.1,29.97,ENE,57,1.0,4.0,51,0.00,,,0.00,Wunderground v.1.15,2013-10-12 20:09:00,
2013-10-12 16:14:00,79.6,60.4,29.97,ENE,62,3.0,5.0,52,0.00,,,0.00,Wunderground v.1.15,2013-10-12 20:14:00,
2013-10-12 16:19:00,79.5,60.3,29.97,ENE,62,4.0,6.0,52,0.00,,,0.00,Wunderground v.1.15,2013-10-12 20:19:00,
2013-10-12 16:24:00,79.2,61.1,29.97,ENE,63,4.0,6.0,54,0.00,,,0.00,Wunderground v.1.15,2013-10-12 20:24:00,
2013-10-12 16:29:00,78.9,61.4,29.97,NE,49,2.0,5.0,55,0.00,,,0.00,Wunderground v.1.15,2013-10-12 20:29:00,
2013-10-12 16:34:00,78.8,61.3,29.97,NE,48,2.0,5.0,55,0.00,,,0.00,Wunderground v.1.15,2013-10-12 20:34:00,
2013-10-12 16:39:00,78.7,61.7,29.97,NE,48,4.0,7.0,56,0.00,,,0.00,Wunderground v.1.15,2013-10-12 20:39:00,
2013-10-12 16:44:00,78.7,62.2,29.97,NE,48,4.0,7.0,57,0.00,,,0.00,Wunderground v.1.15,2013-10-12 20:44:00,
2013-10-12 16:49:00,78.6,62.1,29.97,ENE,69,2.0,4.0,57,0.00,,,0.00,Wunderground v.1.15,2013-10-12 20:49:00,
2013-10-12 16:54:00,78.4,62.4,29.97,NE,53,2.0,5.0,58,0.00,,,0.00,Wunderground v.1.15,2013-10-12 20:54:00,
2013-10-12 16:59:00,78.5,62.5,29.97,NE,53,3.0,3.0,58,0.00,,,0.00,Wunderground v.1.15,2013-10-12 20:59:00,
2013-10-12 17:04:00,78.3,62.3,29.97,NE,42,1.0,4.0,58,0.00,,,0.00,Wunderground v.1.15,2013-10-12 21:04:00,
2013-10-12 17:09:00,78.2,62.2,29.98,NE,51,5.0,5.0,58,0.00,,,0.00,Wunderground v.1.15,2013-10-12 21:09:00,
2013-10-12 17:14:00,78.1,62.1,29.98,NE,44,3.0,5.0,58,0.00,,,0.00,Wunderground v.1.15,2013-10-12 21:14:00,
2013-10-12 17:19:00,78.1,62.1,29.98,NE,55,2.0,4.0,58,0.00,,,0.00,Wunderground v.1.15,2013-10-12 21:19:00,
2013-10-12 17:24:00,78.0,62.0,29.98,ENE,57,0.0,4.0,58,0.00,,,0.00,Wunderground v.1.15,2013-10-12 21:24:00,
2013-10-12 17:29:00,78.1,62.6,29.98,NE,56,0.0,2.0,59,0.00,,,0.00,Wunderground v.1.15,2013-10-12 21:29:00,
2013-10-12 17:34:00,78.1,62.6,29.98,NE,55,0.0,2.0,59,0.00,,,0.00,Wunderground v.1.15,2013-10-12 21:34:00,
2013-10-12 17:40:00,78.1,62.6,29.98,NE,54,0.0,1.0,59,0.00,,,0.00,Wunderground v.1.15,2013-10-12 21:40:00,
2013-10-12 17:45:00,78.1,62.6,29.98,NE,54,0.0,1.0,59,0.00,,,0.00,Wunderground v.1.15,2013-10-12 21:45:00,
2013-10-12 17:50:00,78.1,62.6,29.98,NE,54,2.0,3.0,59,0.00,,,0.00,Wunderground v.1.15,2013-10-12 21:50:00,
2013-10-12 17:55:00,78.3,62.8,29.98,NE,54,0.0,3.0,59,0.00,,,0.00,Wunderground v.1.15,2013-10-12 21:55:00,
2013-10-12 18:00:00,78.2,62.7,29.98,NE,54,0.0,0.0,59,0.00,,,0.00,Wunderground v.1.15,2013-10-12 22:00:00,
2013-10-12 18:05:00,78.0,62.5,29.98,NE,54,0.0,0.0,59,0.00,,,0.00,Wunderground v.1.15,2013-10-12 22:05:00,
2013-10-12 18:10:00,78.0,62.5,29.99,NE,54,0.0,0.0,59,0.00,,,0.00,Wunderground v.1.15,2013-10-12 22:10:00,
2013-10-12 18:15:00,77.8,62.3,29.98,NE,54,0.0,0.0,59,0.00,,,0.00,Wunderground v.1.15,2013-10-12 22:15:00,
2013-10-12 18:20:00,77.8,62.8,29.99,NE,54,0.0,0.0,60,0.00,,,0.00,Wunderground v.1.15,2013-10-12 22:20:00,
2013-10-12 18:25:00,77.7,63.2,29.99,NE,54,0.0,0.0,61,0.00,,,0.00,Wunderground v.1.15,2013-10-12 22:25:00,
2013-10-12 18:30:00,77.6,63.5,29.99,NE,54,0.0,0.0,62,0.00,,,0.00,Wunderground v.1.15,2013-10-12 22:30:00,
2013-10-12 18:35:00,77.4,63.8,29.99,NE,54,0.0,0.0,63,0.00,,,0.00,Wunderground v.1.15,2013-10-12 22:35:00,
2013-10-12 18:40:00,77.2,63.6,29.99,NE,54,0.0,0.0,63,0.00,,,0.00,Wunderground v.1.15,2013-10-12 22:40:00,
2013-10-12 18:45:00,77.0,63.4,29.99,NE,54,0.0,0.0,63,0.00,,,0.00,Wunderground v.1.15,2013-10-12 22:45:00,
2013-10-12 18:50:00,76.8,63.7,29.99,NE,54,0.0,0.0,64,0.00,,,0.00,Wunderground v.1.15,2013-10-12 22:50:00,
2013-10-12 18:55:00,76.5,63.4,29.99,NE,54,0.0,0.0,64,0.00,,,0.00,Wunderground v.1.15,2013-10-12 22:55:00,
2013-10-12 19:00:00,76.2,64.4,29.99,NE,54,0.0,0.0,67,0.00,,,0.00,Wunderground v.1.15,2013-10-12 23:00:00,
2013-10-12 19:05:00,75.8,64.5,29.99,NE,54,0.0,0.0,68,0.00,,,0.00,Wunderground v.1.15,2013-10-12 23:05:00,
2013-10-12 19:10:00,75.3,64.4,29.98,NE,54,0.0,0.0,69,0.00,,,0.00,Wunderground v.1.15,2013-10-12 23:10:00,
2013-10-12 19:15:00,74.9,64.5,29.99,NE,54,0.0,0.0,70,0.00,,,0.00,Wunderground v.1.15,2013-10-12 23:15:00,
2013-10-12 19:20:00,74.4,64.0,29.99,NE,54,0.0,0.0,70,0.00,,,0.00,Wunderground v.1.15,2013-10-12 23:20:00,
2013-10-12 19:26:00,73.9,63.9,29.99,NE,54,0.0,0.0,71,0.00,,,0.00,Wunderground v.1.15,2013-10-12 23:26:00,
2013-10-12 19:31:00,73.5,63.9,29.99,NE,54,0.0,0.0,72,0.00,,,0.00,Wunderground v.1.15,2013-10-12 23:31:00,
2013-10-12 19:36:00,73.1,63.5,29.99,NE,54,0.0,0.0,72,0.00,,,0.00,Wunderground v.1.15,2013-10-12 23:36:00,
2013-10-12 19:41:00,72.8,64.0,30.00,NE,54,0.0,0.0,74,0.00,,,0.00,Wunderground v.1.15,2013-10-12 23:41:00,
2013-10-12 19:46:00,72.4,63.6,30.00,NE,54,0.0,0.0,74,0.00,,,0.00,Wunderground v.1.15,2013-10-12 23:46:00,
2013-10-12 19:51:00,71.9,63.2,30.00,NE,54,0.0,0.0,74,0.00,,,0.00,Wunderground v.1.15,2013-10-12 23:51:00,
2013-10-12 19:56:00,71.6,63.3,30.00,NE,54,0.0,0.0,75,0.00,,,0.00,Wunderground v.1.15,2013-10-12 23:56:00,
2013-10-12 20:01:00,71.1,63.5,30.00,NE,54,0.0,0.0,77,0.00,,,0.00,Wunderground v.1.15,2013-10-13 00:01:00,
2013-10-12 20:06:00,70.4,63.2,30.00,NE,54,0.0,0.0,78,0.00,,,0.00,Wunderground v.1.15,2013-10-13 00:06:00,
2013-10-12 20:11:00,70.0,63.2,30.00,NE,54,0.0,0.0,79,0.00,,,0.00,Wunderground v.1.15,2013-10-13 00:11:00,
2013-10-12 20:16:00,69.6,63.2,30.00,NE,54,0.0,0.0,80,0.00,,,0.00,Wunderground v.1.15,2013-10-13 00:16:00,
2013-10-12 20:21:00,69.2,62.8,30.00,NE,54,0.0,0.0,80,0.00,,,0.00,Wunderground v.1.15,2013-10-13 00:21:00,
2013-10-12 20:26:00,68.9,62.8,30.00,NE,54,0.0,0.0,81,0.00,,,0.00,Wunderground v.1.15,2013-10-13 00:26:00,
2013-10-12 20:31:00,68.6,62.9,30.00,NE,54,0.0,0.0,82,0.00,,,0.00,Wunderground v.1.15,2013-10-13 00:31:00,
2013-10-12 20:36:00,68.3,62.6,30.00,NE,54,0.0,0.0,82,0.00,,,0.00,Wunderground v.1.15,2013-10-13 00:36:00,
2013-10-12 20:41:00,68.0,62.6,30.00,NE,54,0.0,0.0,83,0.00,,,0.00,Wunderground v.1.15,2013-10-13 00:41:00,
2013-10-12 20:46:00,67.8,62.4,30.00,NE,54,0.0,0.0,83,0.00,,,0.00,Wunderground v.1.15,2013-10-13 00:46:00,
2013-10-12 20:51:00,67.7,62.3,30.00,NE,54,0.0,0.0,83,0.00,,,0.00,Wunderground v.1.15,2013-10-13 00:51:00,
2013-10-12 20:56:00,67.6,62.6,30.00,NE,54,0.0,0.0,84,0.00,,,0.00,Wunderground v.1.15,2013-10-13 00:56:00,
2013-10-12 21:01:00,67.4,62.4,30.01,NE,54,0.0,0.0,84,0.00,,,0.00,Wunderground v.1.15,2013-10-13 01:01:00,
2013-10-12 21:06:00,67.2,62.2,30.00,NE,54,0.0,0.0,84,0.00,,,0.00,Wunderground v.1.15,2013-10-13 01:06:00,
2013-10-12 21:11:00,67.0,62.3,30.00,NE,54,0.0,0.0,85,0.00,,,0.00,Wunderground v.1.15,2013-10-13 01:11:00,
2013-10-12 21:16:00,66.8,62.1,30.00,NE,54,0.0,0.0,85,0.00,,,0.00,Wunderground v.1.15,2013-10-13 01:16:00,
2013-10-12 21:21:00,66.8,62.1,30.00,NE,54,0.0,0.0,85,0.00,,,0.00,Wunderground v.1.15,2013-10-13 01:21:00,
2013-10-12 21:26:00,66.9,62.2,30.01,NE,54,0.0,0.0,85,0.00,,,0.00,Wunderground v.1.15,2013-10-13 01:26:00,
2013-10-12 21:31:00,66.9,62.2,30.01,NE,54,0.0,0.0,85,0.00,,,0.00,Wunderground v.1.15,2013-10-13 01:31:00,
2013-10-12 21:36:00,66.9,62.6,30.01,NE,54,0.0,0.0,86,0.00,,,0.00,Wunderground v.1.15,2013-10-13 01:36:00,
2013-10-12 21:41:00,66.8,62.5,30.01,NE,54,0.0,0.0,86,0.00,,,0.00,Wunderground v.1.15,2013-10-13 01:41:00,
2013-10-12 21:46:00,66.7,62.4,30.01,NE,54,0.0,0.0,86,0.00,,,0.00,Wunderground v.1.15,2013-10-13 01:46:00,
2013-10-12 21:51:00,66.6,62.3,30.01,NE,54,0.0,0.0,86,0.00,,,0.00,Wunderground v.1.15,2013-10-13 01:51:00,
2013-10-12 21:56:00,66.5,62.2,30.01,NE,54,0.0,0.0,86,0.00,,,0.00,Wunderground v.1.15,2013-10-13 01:56:00,
2013-10-12 22:01:00,66.3,62.0,30.02,NE,54,0.0,0.0,86,0.00,,,0.00,Wunderground v.1.15,2013-10-13 02:01:00,
2013-10-12 22:07:00,66.2,61.9,30.01,NE,54,0.0,0.0,86,0.00,,,0.00,Wunderground v.1.15,2013-10-13 02:07:00,
2013-10-12 22:12:00,66.1,61.8,30.02,NE,54,0.0,0.0,86,0.00,,,0.00,Wunderground v.1.15,2013-10-13 02:12:00,
2013-10-12 22:17:00,66.1,62.1,30.02,NE,54,0.0,0.0,87,0.00,,,0.00,Wunderground v.1.15,2013-10-13 02:17:00,
2013-10-12 22:22:00,66.1,62.1,30.02,NE,54,0.0,0.0,87,0.00,,,0.00,Wunderground v.1.15,2013-10-13 02:22:00,
2013-10-12 22:27:00,66.2,62.2,30.02,NE,54,0.0,0.0,87,0.00,,,0.00,Wunderground v.1.15,2013-10-13 02:27:00,
2013-10-12 22:32:00,66.3,62.3,30.02,NE,54,0.0,0.0,87,0.00,,,0.00,Wunderground v.1.15,2013-10-13 02:32:00,
2013-10-12 22:37:00,66.3,62.0,30.03,NE,54,0.0,0.0,86,0.00,,,0.00,Wunderground v.1.15,2013-10-13 02:37:00,
2013-10-12 22:42:00,66.4,62.1,30.03,NE,54,0.0,0.0,86,0.00,,,0.00,Wunderground v.1.15,2013-10-13 02:42:00,
2013-10-12 22:47:00,66.4,61.8,30.03,NE,54,0.0,0.0,85,0.00,,,0.00,Wunderground v.1.15,2013-10-13 02:47:00,
2013-10-12 22:52:00,66.6,61.9,30.03,NE,54,0.0,0.0,85,0.00,,,0.00,Wunderground v.1.15,2013-10-13 02:52:00,
2013-10-12 22:57:00,66.8,61.8,30.03,NE,54,0.0,0.0,84,0.00,,,0.00,Wunderground v.1.15,2013-10-13 02:57:00,
2013-10-12 23:02:00,67.0,62.0,30.03,NE,54,0.0,0.0,84,0.00,,,0.00,Wunderground v.1.15,2013-10-13 03:02:00,
2013-10-12 23:07:00,67.2,61.9,30.03,NE,54,0.0,0.0,83,0.00,,,0.00,Wunderground v.1.15,2013-10-13 03:07:00,
2013-10-12 23:12:00,67.5,61.8,30.04,NE,54,0.0,0.0,82,0.00,,,0.00,Wunderground v.1.15,2013-10-13 03:12:00,
2013-10-12 23:17:00,67.8,62.1,30.04,NE,54,0.0,0.0,82,0.00,,,0.00,Wunderground v.1.15,2013-10-13 03:17:00,
2013-10-12 23:22:00,67.8,61.8,30.04,NE,54,0.0,0.0,81,0.00,,,0.00,Wunderground v.1.15,2013-10-13 03:22:00,
2013-10-12 23:27:00,67.7,62.0,30.04,NE,54,0.0,0.0,82,0.00,,,0.00,Wunderground v.1.15,2013-10-13 03:27:00,
2013-10-12 23:33:00,67.5,61.8,30.03,NE,54,0.0,0.0,82,0.00,,,0.00,Wunderground v.1.15,2013-10-13 03:33:00,
2013-10-12 23:37:00,67.4,61.7,30.03,NE,54,0.0,0.0,82,0.00,,,0.00,Wunderground v.1.15,2013-10-13 03:37:00,
2013-10-12 23:43:00,67.2,61.5,30.04,NE,54,0.0,0.0,82,0.00,,,0.00,Wunderground v.1.15,2013-10-13 03:43:00,
2013-10-12 23:48:00,67.2,61.9,30.04,NE,54,0.0,0.0,83,0.00,,,0.00,Wunderground v.1.15,2013-10-13 03:48:00,
2013-10-12 23:53:00,67.3,61.6,30.04,NE,54,0.0,0.0,82,0.00,,,0.00,Wunderground v.1.15,2013-10-13 03:53:00,
2013-10-12 23:58:00,67.5,62.2,30.04,NE,54,0.0,0.0,83,0.00,,,0.00,Wunderground v.1.15,2013-10-13 03:58:00,